Weather History for Austin Bergstrom, TX

Change the Weather History Date:

Saturday, January 19, 2013

  Actual Average Record
Temperature  
Mean Temperature 50 °F 49 °F  
Max Temperature 69 °F 62 °F 86 °F (2000)
Min Temperature 30 °F 36 °F 14 °F (1943)
Degree Days  
Heating Degree Days 15 16  
Month to date heating degree days 359 304  
Since 1 July heating degree days 970 1051  
Cooling Degree Days 0 0  
Month to date cooling degree days 0 0  
Year to date cooling degree days 0 0  
Growing Degree Days 3 (Base 50)    
Moisture  
Dew Point 38 °F    
Average Humidity 70    
Maximum Humidity 100    
Minimum Humidity 39    
Precipitation  
Precipitation 0.00 in 0.08 in 1.56 in (1993)
Month to date precipitation 2.69 1.41  
Year to date precipitation 2.69 1.41  
Snow  
Snow 0.00 in - - ()
Month to date snowfall T  
Since 1 July snowfall T  
Snow Depth 0.00 in    
Sea Level Pressure  
Sea Level Pressure 30.25 in    
Wind  
Wind Speed 6 mph (SSW)    
Max Wind Speed 20 mph    
Max Gust Speed 24 mph    
Visibility 9 miles    
Events      
T = Trace of Precipitation, MM = Missing Value Source: NWS Daily Summary

Daily Weather History Graph

Daily Weather History Graph

Search for Another Location

Airport:

Trip Planner

Search our weather history database for the weather conditions in past years. The results will help you decide how hot, cold, wet, or windy it might be!

Date:

Astronomy

Jan. 19, 2013 Rise Set
Actual Time 7:26 AM CST 5:56 PM CST
Civil Twilight 7:01 AM CST 6:22 PM CST
Nautical Twilight 6:31 AM CST 6:51 PM CST
Astronomical Twilight 6:03 AM CST 7:20 PM CST
Moon 12:18 PM CST (1/19) 1:08 AM CST (1/19)
Length of Visible Light 11h 21m
Length of Day
10h 29m
First Quarter, 57% of the Moon is Illuminated
Jan 19
First Quarter
Jan 26
Full
Feb 3
Last Quarter
Feb 10
New
Feb 17
First Quarter

Hourly Weather History & Observations

Time (CST) Temp. Windchill Dew Point Humidity Pressure Visibility Wind Dir Wind Speed Gust Speed Precip Events Conditions
12:53 AM 33.1 °F - 30.0 °F 89% 30.35 in 10.0 mi Calm Calm - N/A   Clear
1:53 AM 30.9 °F - 28.9 °F 92% 30.34 in 9.0 mi Calm Calm - N/A   Clear
2:53 AM 32.0 °F - 30.0 °F 92% 30.32 in 10.0 mi Calm Calm - N/A   Clear
3:53 AM 30.9 °F - 28.9 °F 92% 30.31 in 10.0 mi Calm Calm - N/A   Clear
4:53 AM 32.0 °F - 30.0 °F 92% 30.29 in 10.0 mi Calm Calm - N/A   Partly Cloudy
5:53 AM 30.9 °F - 30.0 °F 96% 30.28 in 6.0 mi Calm Calm - N/A   Scattered Clouds
6:53 AM 36.0 °F 32.1 °F 35.1 °F 97% 30.29 in 3.0 mi West 4.6 mph - N/A   Mostly Cloudy
7:26 AM 35.6 °F 30.7 °F 35.6 °F 100% 30.27 in 2.5 mi WSW 5.8 mph - N/A   Mostly Cloudy
7:53 AM 39.0 °F 34.8 °F 37.9 °F 96% 30.30 in 3.0 mi WSW 5.8 mph - N/A   Mostly Cloudy
8:53 AM 46.0 °F 43.1 °F 42.1 °F 86% 30.31 in 10.0 mi WSW 5.8 mph - N/A   Mostly Cloudy
9:53 AM 54.0 °F - 44.1 °F 69% 30.32 in 10.0 mi South 9.2 mph - N/A   Mostly Cloudy
10:53 AM 59.0 °F - 45.0 °F 60% 30.32 in 10.0 mi South 13.8 mph - N/A   Mostly Cloudy
11:53 AM 59.0 °F - 45.0 °F 60% 30.28 in 10.0 mi SSW 12.7 mph - N/A   Mostly Cloudy
12:53 PM 63.0 °F - 44.1 °F 50% 30.23 in 10.0 mi SSW 15.0 mph 24.2 mph N/A   Mostly Cloudy
1:53 PM 68.0 °F - 42.1 °F 39% 30.19 in 10.0 mi SW 12.7 mph - N/A   Mostly Cloudy
2:53 PM 68.0 °F - 43.0 °F 40% 30.17 in 10.0 mi SW 12.7 mph - N/A   Mostly Cloudy
3:53 PM 68.0 °F - 42.1 °F 39% 30.17 in 10.0 mi SSW 10.4 mph 18.4 mph N/A   Scattered Clouds
4:53 PM 66.9 °F - 41.0 °F 39% 30.16 in 10.0 mi SSW 12.7 mph - N/A   Scattered Clouds
5:53 PM 61.0 °F - 41.0 °F 48% 30.17 in 10.0 mi South 5.8 mph - N/A   Scattered Clouds
6:53 PM 54.0 °F - 39.9 °F 59% 30.18 in 10.0 mi South 4.6 mph - N/A   Scattered Clouds
7:53 PM 48.9 °F - 39.0 °F 69% 30.21 in 10.0 mi Calm Calm - N/A   Partly Cloudy
8:53 PM 44.1 °F 42.5 °F 37.9 °F 79% 30.22 in 10.0 mi SSW 3.5 mph - N/A   Clear
9:53 PM 39.0 °F - 35.1 °F 86% 30.24 in 10.0 mi Calm Calm - N/A   Clear
10:53 PM 37.4 °F 34.9 °F 35.6 °F 93% 30.23 in 10.0 mi SSW 3.5 mph - N/A   Clear
11:53 PM 48.0 °F - 44.1 °F 86% 30.23 in 10.0 mi SSW 5.8 mph - N/A   Clear